Time,TemperatureF,DewpointF,PressureIn,WindDirection,WindDirectionDegrees,WindSpeedMPH,WindSpeedGustMPH,Humidity,HourlyPrecipIn,Conditions,Clouds,dailyrainin,SoftwareType,DateUTC
2013-02-23 00:00:00,30.7,20.5,30.03,SSE,152,4.9,16.8,65,0.00,,,0.00,VWS V14.01,2013-02-23 05:00:00,
2013-02-23 00:05:00,30.6,20.7,30.03,South,188,17.4,17.9,66,0.00,,,0.00,VWS V14.01,2013-02-23 05:05:00,
2013-02-23 00:10:00,30.6,20.7,30.03,SE,138,5.8,17.9,66,0.00,,,0.00,VWS V14.01,2013-02-23 05:10:00,
2013-02-23 00:15:00,30.4,20.9,30.03,SSE,157,11.9,19.7,67,0.00,,,0.00,VWS V14.01,2013-02-23 05:15:00,
2013-02-23 00:20:00,30.4,20.9,30.03,SSE,162,7.2,19.7,67,0.00,,,0.00,VWS V14.01,2013-02-23 05:20:00,
2013-02-23 00:25:00,30.2,20.7,30.03,South,186,4.9,19.7,67,0.00,,,0.00,VWS V14.01,2013-02-23 05:25:00,
2013-02-23 00:30:00,30.2,21.0,30.03,SSW,193,4.0,23.3,68,0.00,,,0.00,VWS V14.01,2013-02-23 05:30:00,
2013-02-23 00:35:00,30.2,21.0,30.03,South,180,15.0,23.3,68,0.00,,,0.00,VWS V14.01,2013-02-23 05:35:00,
2013-02-23 00:40:00,30.4,21.2,30.03,SE,135,15.0,23.3,68,0.00,,,0.00,VWS V14.01,2013-02-23 05:40:00,
2013-02-23 00:45:00,30.4,21.2,30.03,SE,128,7.6,20.1,68,0.00,,,0.00,VWS V14.01,2013-02-23 05:45:00,
2013-02-23 00:55:00,30.6,21.4,30.03,SSE,149,8.1,14.5,68,0.00,,,0.00,VWS V14.01,2013-02-23 05:55:00,
2013-02-23 01:05:00,30.9,21.4,30.03,SSW,193,7.6,18.3,67,0.00,,,0.00,VWS V14.01,2013-02-23 06:05:00,
2013-02-23 01:15:00,31.1,21.2,30.03,South,177,8.7,17.0,66,0.00,,,0.00,VWS V14.01,2013-02-23 06:15:00,
2013-02-23 01:20:00,31.1,21.2,30.03,SE,141,4.0,16.8,66,0.00,,,0.00,VWS V14.01,2013-02-23 06:20:00,
2013-02-23 01:25:00,31.3,21.4,30.03,ESE,106,10.1,15.4,66,0.00,,,0.00,VWS V14.01,2013-02-23 06:25:00,
2013-02-23 01:35:00,31.3,21.4,30.03,ESE,103,8.7,16.8,66,0.00,,,0.00,VWS V14.01,2013-02-23 06:35:00,
2013-02-23 01:40:00,31.3,21.4,30.03,SE,138,5.8,16.8,66,0.00,,,0.00,VWS V14.01,2013-02-23 06:40:00,
2013-02-23 01:50:00,31.3,21.4,30.03,ESE,117,5.8,23.3,66,0.00,,,0.00,VWS V14.01,2013-02-23 06:50:00,
2013-02-23 02:00:00,31.3,21.4,30.00,SSW,203,11.0,12.8,66,0.00,,,0.00,VWS V14.01,2013-02-23 07:00:00,
2013-02-23 02:10:00,31.3,21.4,30.00,South,179,12.3,17.9,66,0.00,,,0.00,VWS V14.01,2013-02-23 07:10:00,
2013-02-23 02:15:00,31.5,21.5,30.00,South,170,11.0,17.9,66,0.00,,,0.00,VWS V14.01,2013-02-23 07:15:00,
2013-02-23 02:25:00,31.5,21.5,30.00,ESE,107,11.0,14.5,66,0.00,,,0.00,VWS V14.01,2013-02-23 07:25:00,
2013-02-23 02:30:00,31.5,21.5,30.00,SE,137,8.1,15.4,66,0.00,,,0.00,VWS V14.01,2013-02-23 07:30:00,
2013-02-23 02:40:00,31.6,21.7,30.00,South,190,8.7,15.4,66,0.00,,,0.00,VWS V14.01,2013-02-23 07:40:00,
2013-02-23 02:50:00,31.6,21.7,30.00,SE,126,8.1,15.0,66,0.00,,,0.00,VWS V14.01,2013-02-23 07:50:00,
2013-02-23 02:55:00,31.5,21.5,29.97,SE,143,10.1,15.9,66,0.00,,,0.00,VWS V14.01,2013-02-23 07:55:00,
2013-02-23 03:00:00,31.5,21.9,29.97,SSE,155,6.3,15.9,67,0.00,,,0.00,VWS V14.01,2013-02-23 08:00:00,
2013-02-23 03:05:00,31.6,22.1,29.97,South,174,12.3,15.4,67,0.00,,,0.00,VWS V14.01,2013-02-23 08:05:00,
2013-02-23 03:15:00,31.6,22.1,29.97,South,182,10.1,21.9,67,0.00,,,0.00,VWS V14.01,2013-02-23 08:15:00,
2013-02-23 03:25:00,31.6,22.1,29.97,SSE,155,7.6,21.9,67,0.00,,,0.00,VWS V14.01,2013-02-23 08:25:00,
2013-02-23 03:35:00,31.6,22.4,29.97,ESE,119,6.7,12.3,68,0.00,,,0.00,VWS V14.01,2013-02-23 08:35:00,
2013-02-23 03:45:00,31.5,22.6,29.97,SSE,166,5.4,14.5,69,0.00,,,0.00,VWS V14.01,2013-02-23 08:45:00,
2013-02-23 03:50:00,31.5,22.6,29.97,SE,124,5.4,14.5,69,0.00,,,0.00,VWS V14.01,2013-02-23 08:50:00,
2013-02-23 04:00:00,31.5,22.6,29.97,SSE,149,8.1,12.8,69,0.00,,,0.00,VWS V14.01,2013-02-23 09:00:00,
2013-02-23 04:05:00,31.5,22.9,29.97,ESE,116,4.9,12.8,70,0.00,,,0.00,VWS V14.01,2013-02-23 09:05:00,
2013-02-23 04:10:00,31.6,23.1,29.97,South,173,8.3,13.2,70,0.00,,,0.00,VWS V14.01,2013-02-23 09:10:00,
2013-02-23 04:15:00,31.6,23.4,29.97,East,101,5.8,13.2,71,0.00,,,0.00,VWS V14.01,2013-02-23 09:15:00,
2013-02-23 04:25:00,31.6,23.8,29.97,SE,143,8.7,15.9,72,0.00,,,0.00,VWS V14.01,2013-02-23 09:25:00,
2013-02-23 04:30:00,31.6,23.8,29.97,SE,125,10.1,15.9,72,0.00,,,0.00,VWS V14.01,2013-02-23 09:30:00,
2013-02-23 04:35:00,31.6,24.1,29.97,SE,126,8.7,15.9,73,0.00,,,0.00,VWS V14.01,2013-02-23 09:35:00,
2013-02-23 04:40:00,31.6,24.1,29.94,East,95,8.3,15.0,73,0.00,,,0.00,VWS V14.01,2013-02-23 09:40:00,
2013-02-23 04:45:00,31.8,24.3,29.94,SE,146,10.5,15.0,73,0.00,,,0.00,VWS V14.01,2013-02-23 09:45:00,
2013-02-23 04:50:00,31.8,24.3,29.94,South,189,8.3,18.3,73,0.00,,,0.00,VWS V14.01,2013-02-23 09:50:00,
2013-02-23 05:00:00,31.8,24.6,29.97,ESE,111,8.3,18.3,74,0.00,,,0.00,VWS V14.01,2013-02-23 10:00:00,
2013-02-23 05:10:00,32.0,25.1,29.94,SE,132,10.1,15.0,75,0.00,,,0.00,VWS V14.01,2013-02-23 10:10:00,
2013-02-23 05:15:00,32.0,25.1,29.94,SSE,154,5.8,19.7,75,0.00,,,0.00,VWS V14.01,2013-02-23 10:15:00,
2013-02-23 05:20:00,32.0,25.4,29.94,South,174,12.3,19.7,76,0.00,,,0.00,VWS V14.01,2013-02-23 10:20:00,
2013-02-23 05:25:00,32.0,25.4,29.94,SE,133,13.2,19.7,76,0.00,,,0.00,VWS V14.01,2013-02-23 10:25:00,
2013-02-23 05:35:00,32.0,25.7,29.94,South,188,6.3,16.8,77,0.00,,,0.00,VWS V14.01,2013-02-23 10:35:00,
2013-02-23 05:45:00,32.2,26.2,29.97,SSW,209,3.6,23.7,78,0.00,,,0.00,VWS V14.01,2013-02-23 10:45:00,
2013-02-23 05:55:00,32.2,26.5,29.97,ESE,118,8.3,13.2,79,0.00,,,0.00,VWS V14.01,2013-02-23 10:55:00,
2013-02-23 06:00:00,32.4,27.3,29.97,SE,136,5.8,13.2,81,0.00,,,0.00,VWS V14.01,2013-02-23 11:00:00,
2013-02-23 06:10:00,32.4,28.2,29.97,ESE,120,5.8,15.4,84,0.00,,,0.00,VWS V14.01,2013-02-23 11:10:00,
2013-02-23 06:20:00,32.4,28.7,29.97,ESE,120,5.8,13.2,86,0.00,,,0.00,VWS V14.01,2013-02-23 11:20:00,
2013-02-23 06:30:00,32.4,28.7,29.94,SSE,157,12.8,12.8,86,0.00,,,0.00,VWS V14.01,2013-02-23 11:30:00,
2013-02-23 06:35:00,32.4,29.0,29.94,ESE,108,6.3,12.8,87,0.00,,,0.00,VWS V14.01,2013-02-23 11:35:00,
2013-02-23 06:45:00,32.5,29.2,29.94,ESE,122,5.4,16.8,87,0.00,,,0.00,VWS V14.01,2013-02-23 11:45:00,
2013-02-23 06:50:00,32.5,29.2,29.94,South,173,8.1,16.8,87,0.00,,,0.00,VWS V14.01,2013-02-23 11:50:00,
2013-02-23 06:55:00,32.5,29.5,29.94,South,176,6.3,17.0,88,0.00,,,0.00,VWS V14.01,2013-02-23 11:55:00,
2013-02-23 07:05:00,32.7,29.6,29.94,SE,124,4.0,15.0,88,0.00,,,0.00,VWS V14.01,2013-02-23 12:05:00,
2013-02-23 07:10:00,32.7,29.9,29.94,SSE,168,8.3,12.8,89,0.00,,,0.00,VWS V14.01,2013-02-23 12:10:00,
2013-02-23 07:20:00,32.9,30.4,29.94,South,189,8.7,15.4,90,0.00,,,0.00,VWS V14.01,2013-02-23 12:20:00,
2013-02-23 07:30:00,33.1,30.5,29.94,SE,146,5.8,13.2,90,0.00,,,0.00,VWS V14.01,2013-02-23 12:30:00,
2013-02-23 07:35:00,33.1,30.5,29.94,South,171,7.6,13.2,90,0.00,,,0.00,VWS V14.01,2013-02-23 12:35:00,
2013-02-23 07:40:00,33.3,30.7,29.94,SSE,151,9.6,17.4,90,0.00,,,0.00,VWS V14.01,2013-02-23 12:40:00,
2013-02-23 07:45:00,33.3,30.7,29.94,ESE,103,12.3,17.4,90,0.00,,,0.00,VWS V14.01,2013-02-23 12:45:00,
2013-02-23 07:55:00,33.6,31.1,29.94,SSE,164,9.6,18.3,90,0.00,,,0.00,VWS V14.01,2013-02-23 12:55:00,
2013-02-23 08:05:00,33.6,31.1,29.94,SSE,150,10.1,18.3,90,0.00,,,0.00,VWS V14.01,2013-02-23 13:05:00,
2013-02-23 08:15:00,33.8,31.3,29.94,SSW,193,4.0,16.8,90,0.00,,,0.00,VWS V14.01,2013-02-23 13:15:00,
2013-02-23 08:20:00,33.8,31.3,29.94,SSW,194,7.6,14.5,90,0.00,,,0.00,VWS V14.01,2013-02-23 13:20:00,
2013-02-23 08:30:00,34.0,31.4,29.94,South,190,15.9,15.9,90,0.00,,,0.00,VWS V14.01,2013-02-23 13:30:00,
2013-02-23 08:40:00,34.3,31.8,29.94,SSE,155,10.1,17.0,90,0.00,,,0.00,VWS V14.01,2013-02-23 13:40:00,
2013-02-23 08:50:00,34.5,32.0,29.94,SSE,164,9.6,17.4,90,0.00,,,0.00,VWS V14.01,2013-02-23 13:50:00,
2013-02-23 08:55:00,34.5,32.0,29.94,SSE,166,14.1,17.4,90,0.00,,,0.00,VWS V14.01,2013-02-23 13:55:00,
2013-02-23 09:00:00,34.5,32.0,29.94,SSE,167,8.7,14.1,90,0.00,,,0.00,VWS V14.01,2013-02-23 14:00:00,
2013-02-23 09:10:00,34.7,32.2,29.94,South,190,8.3,16.3,90,0.00,,,0.00,VWS V14.01,2013-02-23 14:10:00,
2013-02-23 09:15:00,34.7,32.2,29.94,SSE,154,8.1,16.3,90,0.00,,,0.00,VWS V14.01,2013-02-23 14:15:00,
2013-02-23 09:25:00,34.9,32.3,29.94,SSE,151,10.5,12.3,90,0.00,,,0.00,VWS V14.01,2013-02-23 14:25:00,
2013-02-23 09:30:00,35.1,32.5,29.94,SSE,159,8.7,11.0,90,0.00,,,0.00,VWS V14.01,2013-02-23 14:30:00,
2013-02-23 09:40:00,35.1,32.2,29.94,SSW,203,10.5,13.2,89,0.00,,,0.00,VWS V14.01,2013-02-23 14:40:00,
2013-02-23 09:50:00,35.2,32.4,29.94,SSE,151,15.4,15.4,89,0.00,,,0.00,VWS V14.01,2013-02-23 14:50:00,
2013-02-23 09:55:00,35.4,32.6,29.91,SE,131,6.3,15.4,89,0.00,,,0.00,VWS V14.01,2013-02-23 14:55:00,
2013-02-23 10:00:00,35.6,32.8,29.91,SE,125,8.7,15.4,89,0.00,,,0.00,VWS V14.01,2013-02-23 15:00:00,
2013-02-23 10:10:00,35.6,32.8,29.91,SW,216,7.6,14.1,89,0.00,,,0.00,VWS V14.01,2013-02-23 15:10:00,
2013-02-23 10:15:00,35.6,32.5,29.91,SE,130,4.5,14.1,88,0.00,,,0.00,VWS V14.01,2013-02-23 15:15:00,
2013-02-23 10:20:00,35.8,33.0,29.91,ESE,123,5.4,13.2,89,0.00,,,0.00,VWS V14.01,2013-02-23 15:20:00,
2013-02-23 10:25:00,35.8,32.7,29.91,SE,127,6.3,13.2,88,0.00,,,0.00,VWS V14.01,2013-02-23 15:25:00,
2013-02-23 10:35:00,36.1,33.0,29.91,SSE,147,7.6,11.9,88,0.00,,,0.00,VWS V14.01,2013-02-23 15:35:00,
2013-02-23 10:40:00,36.1,32.7,29.88,South,173,5.8,12.8,87,0.00,,,0.00,VWS V14.01,2013-02-23 15:40:00,
2013-02-23 10:50:00,36.3,32.9,29.88,South,175,4.9,8.7,87,0.00,,,0.00,VWS V14.01,2013-02-23 15:50:00,
2013-02-23 10:55:00,36.3,33.2,29.88,SSW,206,7.6,8.1,88,0.00,,,0.00,VWS V14.01,2013-02-23 15:55:00,
2013-02-23 11:05:00,36.5,33.4,29.88,South,185,13.2,13.2,88,0.00,,,0.00,VWS V14.01,2013-02-23 16:05:00,
2013-02-23 11:15:00,36.7,33.5,29.91,South,181,4.0,13.2,88,0.00,,,0.00,VWS V14.01,2013-02-23 16:15:00,
2013-02-23 11:21:00,36.7,33.5,29.91,SE,129,5.4,15.0,88,0.00,,,0.00,VWS V14.01,2013-02-23 16:21:00,
2013-02-23 11:30:00,36.7,33.5,29.91,SSW,211,4.0,15.0,88,0.00,,,0.00,VWS V14.01,2013-02-23 16:30:00,
2013-02-23 11:41:00,36.7,33.5,29.91,SSE,152,6.3,10.5,88,0.00,,,0.00,VWS V14.01,2013-02-23 16:41:00,
2013-02-23 11:55:00,36.9,33.7,29.91,SSW,210,10.5,13.2,88,0.00,,,0.00,VWS V14.01,2013-02-23 16:55:00,
2013-02-23 12:00:00,36.9,33.7,29.91,SSE,160,8.1,13.2,88,0.00,,,0.00,VWS V14.01,2013-02-23 17:00:00,
2013-02-23 12:10:00,36.9,33.7,29.91,South,179,6.3,13.2,88,0.00,,,0.00,VWS V14.01,2013-02-23 17:10:00,
2013-02-23 12:20:00,36.9,34.0,29.91,South,178,3.1,10.5,89,0.00,,,0.00,VWS V14.01,2013-02-23 17:20:00,
2013-02-23 12:25:00,37.0,34.5,29.88,SE,143,5.4,8.3,90,0.00,,,0.00,VWS V14.01,2013-02-23 17:25:00,
2013-02-23 12:35:00,37.4,34.8,29.88,SSW,198,3.1,10.1,90,0.00,,,0.00,VWS V14.01,2013-02-23 17:35:00,
2013-02-23 12:45:00,37.4,34.8,29.88,South,179,8.1,11.0,90,0.00,,,0.00,VWS V14.01,2013-02-23 17:45:00,
2013-02-23 12:55:00,37.4,34.5,29.88,SSE,164,6.3,12.8,89,0.00,,,0.00,VWS V14.01,2013-02-23 17:55:00,
2013-02-23 13:00:00,37.4,34.5,29.88,SE,136,5.8,10.1,89,0.00,,,0.00,VWS V14.01,2013-02-23 18:00:00,
2013-02-23 13:10:00,37.6,34.7,29.88,ESE,108,8.1,11.0,89,0.00,,,0.00,VWS V14.01,2013-02-23 18:10:00,
2013-02-23 13:20:00,37.8,34.9,29.88,South,176,8.7,11.0,89,0.00,,,0.00,VWS V14.01,2013-02-23 18:20:00,
2013-02-23 13:30:00,37.8,34.9,29.88,SSE,151,5.4,12.3,89,0.00,,,0.00,VWS V14.01,2013-02-23 18:30:00,
2013-02-23 13:40:00,37.6,34.7,29.85,South,169,8.1,10.1,89,0.00,,,0.00,VWS V14.01,2013-02-23 18:40:00,
2013-02-23 13:45:00,37.9,35.1,29.85,ESE,123,5.8,10.1,89,0.00,,,0.00,VWS V14.01,2013-02-23 18:45:00,
2013-02-23 13:55:00,37.9,35.1,29.85,SSW,197,5.4,10.1,89,0.00,,,0.00,VWS V14.01,2013-02-23 18:55:00,
2013-02-23 14:00:00,37.9,35.1,29.85,South,176,6.3,12.8,89,0.00,,,0.00,VWS V14.01,2013-02-23 19:00:00,
2013-02-23 14:10:00,37.8,34.9,29.85,SSW,195,3.1,12.8,89,0.00,,,0.00,VWS V14.01,2013-02-23 19:10:00,
2013-02-23 14:15:00,37.8,34.9,29.85,South,184,8.3,10.5,89,0.00,,,0.00,VWS V14.01,2013-02-23 19:15:00,
2013-02-23 14:20:00,37.6,34.7,29.85,SSW,202,5.8,10.5,89,0.00,,,0.00,VWS V14.01,2013-02-23 19:20:00,
2013-02-23 14:30:00,37.4,34.5,29.85,SSW,193,6.3,8.7,89,0.00,,,0.00,VWS V14.01,2013-02-23 19:30:00,
2013-02-23 14:40:00,37.2,34.7,29.85,SSW,202,5.4,8.3,90,0.00,,,0.00,VWS V14.01,2013-02-23 19:40:00,
2013-02-23 14:45:00,37.2,34.7,29.85,South,187,5.8,8.1,90,0.00,,,0.00,VWS V14.01,2013-02-23 19:45:00,
2013-02-23 14:55:00,37.0,34.5,29.85,SSW,202,4.9,7.6,90,0.00,,,0.00,VWS V14.01,2013-02-23 19:55:00,
2013-02-23 15:00:00,37.0,34.5,29.85,South,178,3.6,6.7,90,0.00,,,0.00,VWS V14.01,2013-02-23 20:00:00,
2013-02-23 15:05:00,37.0,34.7,29.85,South,184,2.7,6.7,91,0.00,,,0.00,VWS V14.01,2013-02-23 20:05:00,
2013-02-23 15:10:00,37.2,34.9,29.85,South,179,5.8,6.7,91,0.00,,,0.00,VWS V14.01,2013-02-23 20:10:00,
2013-02-23 15:15:00,37.4,35.1,29.85,SW,215,5.4,8.3,91,0.00,,,0.00,VWS V14.01,2013-02-23 20:15:00,
2013-02-23 15:20:00,37.4,35.1,29.85,SSE,155,2.7,10.1,91,0.00,,,0.00,VWS V14.01,2013-02-23 20:20:00,
2013-02-23 15:30:00,37.2,35.2,29.85,South,191,4.9,8.1,92,0.00,,,0.00,VWS V14.01,2013-02-23 20:30:00,
2013-02-23 15:40:00,37.2,35.2,29.85,SSW,192,2.2,5.8,92,0.00,,,0.00,VWS V14.01,2013-02-23 20:40:00,
2013-02-23 15:45:00,37.2,35.2,29.85,SSW,194,3.6,5.8,92,0.00,,,0.00,VWS V14.01,2013-02-23 20:45:00,
2013-02-23 15:50:00,37.2,35.2,29.85,South,189,2.7,5.8,92,0.00,,,0.00,VWS V14.01,2013-02-23 20:50:00,
2013-02-23 15:55:00,37.2,35.2,29.85,South,180,2.2,5.8,92,0.00,,,0.00,VWS V14.01,2013-02-23 20:55:00,
2013-02-23 16:00:00,37.2,35.2,29.85,South,190,2.7,4.0,92,0.00,,,0.00,VWS V14.01,2013-02-23 21:00:00,
2013-02-23 16:05:00,37.2,35.2,29.85,SSW,194,0.0,4.9,92,0.00,,,0.00,VWS V14.01,2013-02-23 21:05:00,
2013-02-23 16:15:00,37.2,35.2,29.85,SSE,154,2.7,4.9,92,0.00,,,0.00,VWS V14.01,2013-02-23 21:15:00,
2013-02-23 16:20:00,37.2,35.5,29.85,South,178,0.0,4.0,93,0.00,,,0.00,VWS V14.01,2013-02-23 21:20:00,
2013-02-23 16:25:00,37.2,35.5,29.83,SSW,197,0.0,4.0,93,0.00,,,0.00,VWS V14.01,2013-02-23 21:25:00,
2013-02-23 16:30:00,37.0,35.3,29.83,South,187,2.7,4.9,93,0.00,,,0.00,VWS V14.01,2013-02-23 21:30:00,
2013-02-23 16:40:00,37.0,35.3,29.83,SSW,193,2.7,4.9,93,0.00,,,0.00,VWS V14.01,2013-02-23 21:40:00,
2013-02-23 16:50:00,37.0,35.3,29.83,SSW,193,3.6,5.4,93,0.00,,,0.00,VWS V14.01,2013-02-23 21:50:00,
2013-02-23 16:55:00,37.0,35.3,29.83,South,191,4.0,5.4,93,0.00,,,0.00,VWS V14.01,2013-02-23 21:55:00,
2013-02-23 17:00:00,37.0,35.3,29.83,SSW,203,2.7,5.4,93,0.00,,,0.00,VWS V14.01,2013-02-23 22:00:00,
2013-02-23 17:10:00,36.9,35.1,29.83,SSW,192,3.6,5.8,93,0.00,,,0.00,VWS V14.01,2013-02-23 22:10:00,
2013-02-23 17:15:00,36.9,35.4,29.83,South,174,0.0,5.4,94,0.00,,,0.00,VWS V14.01,2013-02-23 22:15:00,
2013-02-23 17:25:00,36.9,35.4,29.83,SSW,194,3.6,5.4,94,0.00,,,0.00,VWS V14.01,2013-02-23 22:25:00,
2013-02-23 17:35:00,36.9,35.4,29.83,South,187,3.6,4.9,94,0.00,,,0.00,VWS V14.01,2013-02-23 22:35:00,
2013-02-23 17:40:00,36.9,35.4,29.83,SSW,201,3.1,5.8,94,0.00,,,0.00,VWS V14.01,2013-02-23 22:40:00,
2013-02-23 17:50:00,36.9,35.4,29.83,South,187,2.2,5.8,94,0.00,,,0.00,VWS V14.01,2013-02-23 22:50:00,
2013-02-23 17:55:00,36.9,35.4,29.83,South,183,0.0,4.5,94,0.00,,,0.00,VWS V14.01,2013-02-23 22:55:00,
2013-02-23 18:00:00,36.9,35.4,29.83,South,182,0.0,4.0,94,0.00,,,0.00,VWS V14.01,2013-02-23 23:00:00,
2013-02-23 18:10:00,36.9,35.4,29.83,SE,139,0.0,3.1,94,0.00,,,0.00,VWS V14.01,2013-02-23 23:10:00,
2013-02-23 18:15:00,36.9,35.4,29.83,SE,139,0.0,3.1,94,0.00,,,0.00,VWS V14.01,2013-02-23 23:15:00,
2013-02-23 18:25:00,36.5,35.0,29.83,SE,139,0.0,0.0,94,0.00,,,0.00,VWS V14.01,2013-02-23 23:25:00,
2013-02-23 18:35:00,36.5,35.0,29.83,SW,229,0.0,2.7,94,0.00,,,0.00,VWS V14.01,2013-02-23 23:35:00,
2013-02-23 18:45:00,36.5,35.0,29.83,South,186,4.0,4.0,94,0.00,,,0.00,VWS V14.01,2013-02-23 23:45:00,
2013-02-23 18:50:00,36.5,35.0,29.83,South,186,3.6,4.0,94,0.00,,,0.00,VWS V14.01,2013-02-23 23:50:00,
2013-02-23 19:00:00,36.5,35.0,29.85,SSW,198,2.2,4.0,94,0.00,,,0.00,VWS V14.01,2013-02-24 00:00:00,
2013-02-23 19:10:00,36.5,35.0,29.83,SSW,195,0.0,4.0,94,0.00,,,0.00,VWS V14.01,2013-02-24 00:10:00,
2013-02-23 19:15:00,36.5,35.0,29.83,SSW,195,2.7,4.0,94,0.00,,,0.00,VWS V14.01,2013-02-24 00:15:00,
2013-02-23 19:25:00,36.5,35.0,29.83,SSW,194,0.0,4.0,94,0.00,,,0.00,VWS V14.01,2013-02-24 00:25:00,
2013-02-23 19:35:00,36.5,35.0,29.83,SSW,194,0.0,4.0,94,0.00,,,0.00,VWS V14.01,2013-02-24 00:35:00,
2013-02-23 19:45:00,36.5,35.0,29.85,SW,218,4.0,4.0,94,0.00,,,0.00,VWS V14.01,2013-02-24 00:45:00,
2013-02-23 19:50:00,36.5,35.0,29.85,SSW,204,4.0,5.8,94,0.00,,,0.00,VWS V14.01,2013-02-24 00:50:00,
2013-02-23 19:55:00,36.5,35.0,29.85,SSW,193,2.2,5.8,94,0.00,,,0.00,VWS V14.01,2013-02-24 00:55:00,
2013-02-23 20:00:00,36.5,35.0,29.85,SSW,194,0.0,5.8,94,0.00,,,0.00,VWS V14.01,2013-02-24 01:00:00,
2013-02-23 20:05:00,36.5,35.0,29.85,SSW,194,0.0,4.5,94,0.00,,,0.00,VWS V14.01,2013-02-24 01:05:00,
2013-02-23 20:10:00,36.5,35.0,29.85,SSW,194,0.0,3.1,94,0.00,,,0.00,VWS V14.01,2013-02-24 01:10:00,
2013-02-23 20:20:00,36.5,35.0,29.85,SSW,194,0.0,3.1,94,0.00,,,0.00,VWS V14.01,2013-02-24 01:20:00,
2013-02-23 20:25:00,36.5,35.0,29.85,SSW,202,2.2,3.6,94,0.00,,,0.00,VWS V14.01,2013-02-24 01:25:00,
2013-02-23 20:30:00,36.5,35.0,29.85,SSW,202,3.1,3.6,94,0.00,,,0.00,VWS V14.01,2013-02-24 01:30:00,
2013-02-23 20:35:00,36.5,35.0,29.85,SSW,206,3.6,4.9,94,0.00,,,0.00,VWS V14.01,2013-02-24 01:35:00,
2013-02-23 20:40:00,36.5,35.0,29.83,SSW,210,4.0,4.9,94,0.00,,,0.00,VWS V14.01,2013-02-24 01:40:00,
2013-02-23 20:45:00,36.5,35.0,29.83,SW,214,4.0,4.9,94,0.00,,,0.00,VWS V14.01,2013-02-24 01:45:00,
2013-02-23 20:55:00,36.5,35.0,29.83,SW,214,2.7,4.9,94,0.00,,,0.00,VWS V14.01,2013-02-24 01:55:00,
2013-02-23 21:00:00,36.5,35.0,29.83,SW,214,3.1,4.5,94,0.00,,,0.00,VWS V14.01,2013-02-24 02:00:00,
2013-02-23 21:10:00,36.5,35.0,29.83,SW,214,3.6,4.0,94,0.00,,,0.00,VWS V14.01,2013-02-24 02:10:00,
2013-02-23 21:20:00,36.5,35.0,29.83,SW,214,4.0,4.0,94,0.00,,,0.00,VWS V14.01,2013-02-24 02:20:00,
2013-02-23 21:30:00,36.5,35.0,29.83,SSW,208,5.8,5.8,94,0.00,,,0.00,VWS V14.01,2013-02-24 02:30:00,
2013-02-23 21:35:00,36.5,35.0,29.83,SSW,213,2.2,5.8,94,0.00,,,0.00,VWS V14.01,2013-02-24 02:35:00,
2013-02-23 21:40:00,36.5,35.0,29.83,SW,227,3.6,5.8,94,0.00,,,0.00,VWS V14.01,2013-02-24 02:40:00,
2013-02-23 21:45:00,36.5,35.0,29.83,WSW,241,2.7,5.8,94,0.00,,,0.00,VWS V14.01,2013-02-24 02:45:00,
2013-02-23 21:55:00,36.5,35.0,29.83,WSW,241,3.1,4.9,94,0.00,,,0.00,VWS V14.01,2013-02-24 02:55:00,
2013-02-23 22:00:00,36.5,35.0,29.83,SSW,210,2.7,4.0,94,0.00,,,0.00,VWS V14.01,2013-02-24 03:00:00,
2013-02-23 22:05:00,36.5,35.0,29.83,SSW,210,3.6,4.0,94,0.00,,,0.00,VWS V14.01,2013-02-24 03:05:00,
2013-02-23 22:10:00,36.5,35.0,29.83,SSW,210,0.0,4.0,94,0.00,,,0.00,VWS V14.01,2013-02-24 03:10:00,
2013-02-23 22:15:00,36.5,35.0,29.83,SSW,210,2.2,4.0,94,0.00,,,0.00,VWS V14.01,2013-02-24 03:15:00,
2013-02-23 22:20:00,36.5,35.0,29.83,SSW,210,0.0,4.0,94,0.00,,,0.00,VWS V14.01,2013-02-24 03:20:00,
2013-02-23 22:30:00,36.5,35.0,29.83,SSW,210,0.0,2.7,94,0.00,,,0.00,VWS V14.01,2013-02-24 03:30:00,
2013-02-23 22:35:00,36.5,35.0,29.83,SSW,210,0.0,2.7,94,0.00,,,0.00,VWS V14.01,2013-02-24 03:35:00,
2013-02-23 22:40:00,36.5,35.0,29.83,SSW,210,0.0,0.0,94,0.00,,,0.00,VWS V14.01,2013-02-24 03:40:00,
2013-02-23 22:45:00,36.5,35.0,29.83,SSW,210,0.0,0.0,94,0.00,,,0.00,VWS V14.01,2013-02-24 03:45:00,
2013-02-23 22:50:00,36.5,35.0,29.83,SSW,210,0.0,0.0,94,0.00,,,0.00,VWS V14.01,2013-02-24 03:50:00,
2013-02-23 22:55:00,36.5,35.0,29.83,SSW,210,0.0,0.0,94,0.00,,,0.00,VWS V14.01,2013-02-24 03:55:00,
2013-02-23 23:00:00,36.5,35.0,29.83,SSW,210,0.0,0.0,94,0.00,,,0.00,VWS V14.01,2013-02-24 04:00:00,
2013-02-23 23:05:00,36.5,35.0,29.83,SSW,210,0.0,0.0,94,0.00,,,0.00,VWS V14.01,2013-02-24 04:05:00,
2013-02-23 23:10:00,36.5,35.0,29.80,SSW,210,0.0,0.0,94,0.00,,,0.00,VWS V14.01,2013-02-24 04:10:00,
2013-02-23 23:15:00,36.5,35.0,29.80,NW,315,6.3,8.7,94,0.00,,,0.00,VWS V14.01,2013-02-24 04:15:00,
2013-02-23 23:20:00,36.5,35.0,29.80,NNW,338,5.8,10.1,94,0.00,,,0.00,VWS V14.01,2013-02-24 04:20:00,
2013-02-23 23:25:00,36.5,35.0,29.83,NNW,333,5.4,10.1,94,0.00,,,0.00,VWS V14.01,2013-02-24 04:25:00,
2013-02-23 23:30:00,36.5,35.0,29.83,NW,326,7.6,10.1,94,0.00,,,0.00,VWS V14.01,2013-02-24 04:30:00,
2013-02-23 23:40:00,36.5,35.0,29.83,North,0,6.7,8.7,94,0.00,,,0.00,VWS V14.01,2013-02-24 04:40:00,
2013-02-23 23:45:00,36.5,35.0,29.83,NNW,330,8.3,8.7,94,0.00,,,0.00,VWS V14.01,2013-02-24 04:45:00,
2013-02-23 23:50:00,36.5,35.0,29.83,NW,319,8.1,11.0,94,0.00,,,0.00,VWS V14.01,2013-02-24 04:50:00,
2013-02-23 23:55:00,36.5,35.0,29.83,NW,320,6.7,11.0,94,0.00,,,0.00,VWS V14.01,2013-02-24 04:55:00,